• In Germany
  • List of Countries
  • For 7 days
  • Water Temperature
  • Satellite Maps
  • Weather Map
  • Weather Widgets
  • user-avatar
    Login

    Hourly Weather Korçe

    Today, 19 January, Friday

    Time Temperature Precipitation Wind Pressure Humidity
    00:00 -3°C° 0 mm 2 mps 665 mmHg 58%
    01:00 -3°C° 0 mm 2 mps 665 mmHg 57%
    02:00 -3°C° 0 mm 2 mps 665 mmHg 58%
    03:00 -3°C° 0 mm 2 mps 665 mmHg 58%
    04:00 -3°C° 0 mm 2 mps 664 mmHg 59%
    05:00 -3°C° 0 mm 2 mps 664 mmHg 60%
    06:00 -3°C° 0 mm 2 mps 664 mmHg 61%
    07:00 -3°C° 0 mm 2 mps 664 mmHg 62%
    08:00 -1°C° 0 mm 2 mps 664 mmHg 62%
    09:00 +1°C° 0 mm 3 mps 665 mmHg 63%
    10:00 +2°C° 0 mm 3 mps 665 mmHg 64%
    11:00 +3°C° 0 mm 3 mps 665 mmHg 65%
    12:00 +4°C° 0 mm 3 mps 665 mmHg 67%
    13:00 +5°C° 0 mm 3 mps 665 mmHg 68%
    14:00 +4°C° 0 mm 3 mps 665 mmHg 74%
    15:00 +4°C° 0 mm 2 mps 665 mmHg 79%
    16:00 +3°C° 0 mm 2 mps 664 mmHg 84%
    17:00 +3°C° 0 mm 2 mps 664 mmHg 86%
    18:00 +2°C° 0 mm 2 mps 664 mmHg 88%
    19:00 0°C° 0 mm 3 mps 664 mmHg 91%
    20:00 0°C° 0 mm 3 mps 664 mmHg 91%
    21:00 0°C° 0 mm 3 mps 664 mmHg 92%
    22:00 +1°C° 0 mm 3 mps 664 mmHg 92%
    23:00 +1°C° 0 mm 3 mps 664 mmHg 93%

    Tomorrow, 20 January, Saturday

    Time Temperature Precipitation Wind Pressure Humidity
    00:00 +1°C° 0 mm 3 mps 664 mmHg 93%
    01:00 +1°C° 0 mm 3 mps 664 mmHg 93%
    02:00 +1°C° 0.1 mm 3 mps 663 mmHg 93%
    03:00 +1°C° 0.1 mm 3 mps 663 mmHg 94%
    04:00 +1°C° 0.1 mm 3 mps 663 mmHg 94%
    05:00 +1°C° 0.1 mm 3 mps 663 mmHg 94%
    06:00 +1°C° 0.1 mm 3 mps 663 mmHg 94%
    07:00 +2°C° 0.1 mm 3 mps 662 mmHg 94%
    08:00 +2°C° 0.1 mm 3 mps 663 mmHg 93%
    09:00 +3°C° 0.1 mm 3 mps 663 mmHg 91%
    10:00 +4°C° 0.1 mm 3 mps 663 mmHg 90%
    11:00 +4°C° 0.4 mm 3 mps 663 mmHg 89%
    12:00 +4°C° 0.4 mm 3 mps 662 mmHg 88%
    13:00 +5°C° 0.4 mm 3 mps 662 mmHg 88%
    14:00 +4°C° 0.5 mm 3 mps 662 mmHg 89%
    15:00 +5°C° 0.5 mm 2 mps 662 mmHg 91%
    16:00 +5°C° 0.5 mm 2 mps 661 mmHg 92%
    17:00 +4°C° 0.2 mm 2 mps 661 mmHg 93%
    18:00 +4°C° 0.2 mm 2 mps 662 mmHg 94%
    19:00 +4°C° 0.2 mm 1 mps 662 mmHg 94%
    20:00 +4°C° 0 mm 1 mps 662 mmHg 95%
    21:00 +3°C° 0 mm 2 mps 662 mmHg 95%
    22:00 +3°C° 0 mm 2 mps 662 mmHg 95%
    23:00 +2°C° 0 mm 2 mps 662 mmHg 95%

    Day after tomorrow, 21 January, Sunday

    Time Temperature Precipitation Wind Pressure Humidity
    00:00 +2°C° 0 mm 2 mps 661 mmHg 95%
    01:00 +2°C° 0 mm 2 mps 661 mmHg 94%
    02:00 +2°C° 0 mm 2 mps 661 mmHg 94%
    03:00 +2°C° 0 mm 2 mps 660 mmHg 94%
    04:00 +2°C° 0 mm 2 mps 660 mmHg 94%
    05:00 +1°C° 0.3 mm 3 mps 659 mmHg 94%
    06:00 +1°C° 0.3 mm 3 mps 659 mmHg 94%
    07:00 +2°C° 0.3 mm 3 mps 659 mmHg 94%
    08:00 +2°C° 0.8 mm 3 mps 659 mmHg 93%
    09:00 +2°C° 0.8 mm 3 mps 658 mmHg 92%
    10:00 +3°C° 0.8 mm 3 mps 658 mmHg 91%
    11:00 +3°C° 1.4 mm 3 mps 657 mmHg 91%
    12:00 +3°C° 1.4 mm 3 mps 657 mmHg 91%
    13:00 +3°C° 1.4 mm 3 mps 656 mmHg 92%
    14:00 +2°C° 1.6 mm 3 mps 656 mmHg 92%
    15:00 +2°C° 1.6 mm 3 mps 656 mmHg 92%
    16:00 +2°C° 1.6 mm 3 mps 655 mmHg 93%
    17:00 +1°C° 0.4 mm 3 mps 655 mmHg 93%
    18:00 +1°C° 0.4 mm 3 mps 656 mmHg 93%
    19:00 +1°C° 0.4 mm 2 mps 656 mmHg 93%
    20:00 +1°C° 0.1 mm 2 mps 656 mmHg 93%
    21:00 +1°C° 0.1 mm 2 mps 656 mmHg 93%
    22:00 -1°C° 0.1 mm 2 mps 657 mmHg 92%
    23:00 -1°C° 0.1 mm 2 mps 657 mmHg 92%

    22 January, Monday

    Time Temperature Precipitation Wind Pressure Humidity
    00:00 -1°C° 0.1 mm 3 mps 657 mmHg 92%
    01:00 -1°C° 0.1 mm 3 mps 657 mmHg 91%
    02:00 -2°C° 0 mm 3 mps 658 mmHg 91%
    03:00 -4°C° 0 mm 3 mps 658 mmHg 90%
    04:00 -3°C° 0 mm 2 mps 658 mmHg 90%
    05:00 -3°C° 0 mm 2 mps 658 mmHg 88%
    06:00 -4°C° 0 mm 2 mps 659 mmHg 87%
    07:00 -4°C° 0 mm 2 mps 659 mmHg 86%
    08:00 -3°C° 0 mm 2 mps 660 mmHg 79%
    09:00 -2°C° 0 mm 2 mps 661 mmHg 72%
    10:00 0°C° 0 mm 3 mps 662 mmHg 65%
    11:00 0°C° 0 mm 3 mps 662 mmHg 63%
    12:00 +1°C° 0 mm 3 mps 662 mmHg 61%
    13:00 +1°C° 0 mm 3 mps 663 mmHg 59%
    14:00 +1°C° 0 mm 3 mps 663 mmHg 62%
    15:00 +2°C° 0 mm 2 mps 663 mmHg 65%
    16:00 +1°C° 0 mm 2 mps 663 mmHg 68%
    17:00 -1°C° 0 mm 2 mps 663 mmHg 70%
    18:00 -2°C° 0 mm 2 mps 664 mmHg 73%
    19:00 -3°C° 0 mm 2 mps 664 mmHg 75%
    20:00 -3°C° 0 mm 2 mps 664 mmHg 74%
    21:00 -3°C° 0 mm 2 mps 664 mmHg 74%
    22:00 -3°C° 0 mm 2 mps 665 mmHg 73%
    23:00 -1°C° 0 mm 1 mps 665 mmHg 71%

    23 January, Tuesday

    Time Temperature Precipitation Wind Pressure Humidity
    00:00 -1°C° 0 mm 1 mps 665 mmHg 69%
    01:00 -1°C° 0 mm 1 mps 665 mmHg 66%
    02:00 -1°C° 0 mm 1 mps 665 mmHg 63%
    03:00 -1°C° 0 mm 1 mps 665 mmHg 61%
    04:00 -1°C° 0 mm 1 mps 665 mmHg 58%
    05:00 0°C° 0 mm 1 mps 665 mmHg 55%
    06:00 0°C° 0 mm 1 mps 665 mmHg 53%
    07:00 0°C° 0 mm 1 mps 666 mmHg 51%
    08:00 +2°C° 0 mm 1 mps 666 mmHg 49%
    09:00 +3°C° 0 mm 1 mps 667 mmHg 48%
    10:00 +5°C° 0 mm 1 mps 668 mmHg 46%
    11:00 +5°C° 0 mm 1 mps 668 mmHg 48%
    12:00 +5°C° 0 mm 1 mps 668 mmHg 51%
    13:00 +5°C° 0 mm 2 mps 668 mmHg 54%
    14:00 +5°C° 0.2 mm 1 mps 668 mmHg 59%
    15:00 +4°C° 0.2 mm 1 mps 668 mmHg 65%
    16:00 +4°C° 0.2 mm 1 mps 667 mmHg 71%
    17:00 +3°C° 0 mm 1 mps 667 mmHg 73%
    18:00 +2°C° 0 mm 1 mps 668 mmHg 74%
    19:00 +1°C° 0 mm 1 mps 668 mmHg 76%
    20:00 +1°C° 0 mm 1 mps 668 mmHg 77%
    21:00 +1°C° 0 mm 1 mps 668 mmHg 78%
    22:00 0°C° 0 mm 1 mps 668 mmHg 79%
    23:00 0°C° 0 mm 1 mps 668 mmHg 79%

    24 January, Wednesday

    Time Temperature Precipitation Wind Pressure Humidity
    00:00 0°C° 0 mm 1 mps 668 mmHg 79%
    01:00 -2°C° 0 mm 2 mps 668 mmHg 79%
    02:00 -2°C° 0 mm 2 mps 668 mmHg 79%
    03:00 -2°C° 0 mm 2 mps 668 mmHg 79%
    04:00 -2°C° 0 mm 2 mps 668 mmHg 79%
    05:00 -2°C° 0 mm 2 mps 668 mmHg 80%
    06:00 -2°C° 0 mm 2 mps 669 mmHg 80%
    07:00 -2°C° 0 mm 2 mps 669 mmHg 81%
    08:00 +1°C° 0 mm 2 mps 670 mmHg 76%
    09:00 +3°C° 0 mm 2 mps 670 mmHg 72%
    10:00 +4°C° 0 mm 2 mps 671 mmHg 68%
    11:00 +5°C° 0 mm 2 mps 671 mmHg 65%
    12:00 +6°C° 0 mm 2 mps 671 mmHg 62%
    13:00 +6°C° 0 mm 2 mps 670 mmHg 60%
    14:00 +6°C° 0.1 mm 2 mps 670 mmHg 65%
    15:00 +5°C° 0.1 mm 2 mps 670 mmHg 70%
    16:00 +4°C° 0.1 mm 2 mps 670 mmHg 75%
    17:00 +3°C° 0.1 mm 2 mps 670 mmHg 78%
    18:00 +2°C° 0.1 mm 2 mps 670 mmHg 81%
    19:00 +1°C° 0.1 mm 2 mps 670 mmHg 84%
    20:00 +1°C° 0 mm 2 mps 670 mmHg 84%
    21:00 -1°C° 0 mm 2 mps 670 mmHg 84%
    22:00 -1°C° 0 mm 2 mps 670 mmHg 84%
    23:00 -1°C° 0 mm 2 mps 670 mmHg 84%
    Show more